Flag for U.S.A. Weather past 2 weeks in Bentonville, Arkansas, U.S.A.

Now
61 °F

Sunny.


Feels Like: 61 °F
Forecast: 42 / 67 °F
Wind: 8 mph from North

Location: Bentonville Weather Observing Station

Current Time: Mar 29, 2015 at 6:18:57 PM

Latest Report: Mar 29, 2015 at 5:55 PM


Visibility: 10 mi

Pressure: 30.06 "Hg

Humidity: 52%

Dew point: 43 °F

Location of BentonvilleLocation

Historic Weather in Bentonville — Graph

°F

Bentonville temperature yesterday

Maximum temperature yesterday: 61 °F (at 3:15 PM)
Minimum temperature yesterday: 39 °F (at 2:15 AM)
Average temperature yesterday: 48 °F

Past Weeks' High & Low Weather Summary

 TemperatureHumidityPressure
High79 °F (Mar 24, 3:15 PM)94% (Mar 16, 9:15 AM)30.36 "Hg (Mar 16, 9:15 AM)
Low37 °F (Mar 15, 6:35 AM)32% (Mar 21, 3:35 PM)29.74 "Hg (Mar 24, 5:35 PM)
Average53 °F66%30.09 "Hg
* Reported Mar 14 4:15 PM — Mar 29 4:55 PM, Bentonville, Weather by CustomWeather, © 2015

Note: Actual official high and low records may vary slightly from our data, if they occured in-between our weather recording intervals... More about our weather records

Advertising

Bentonville weather history for previous 24 hours

 ConditionsComfort  
Time TempWeatherWind HumidityBarometerVisibility
4:55 PM
Sun, Mar 29
63 °FSunny.13 mph49%30.04 "Hg10 mi
4:15 PM64 °FSunny.9 mph46%30.02 "Hg10 mi
3:55 PM66 °FSunny.10 mph43%30.01 "Hg10 mi
3:35 PM66 °FSunny.13 mph43%30.02 "Hg10 mi
3:15 PM68 °FSunny.10 mph40%30.01 "Hg10 mi
2:55 PM68 °FSunny.7 mph43%30.01 "Hg10 mi
2:35 PM66 °FSunny.10 mph43%30.02 "Hg10 mi
2:15 PM64 °FSunny.8 mph46%30.02 "Hg10 mi
1:55 PM66 °FSunny.10 mph43%30.02 "Hg10 mi
1:35 PM66 °FSunny.10 mph43%30.03 "Hg10 mi
1:15 PM64 °FSunny.9 mph46%30.04 "Hg10 mi
12:55 PM63 °FSunny.8 mph45%30.05 "Hg10 mi
12:35 PM63 °FSunny.9 mph49%30.05 "Hg10 mi
12:15 PM63 °FSunny.13 mph45%30.05 "Hg10 mi
11:55 AM63 °FSunny.13 mph45%30.06 "Hg10 mi
11:35 AM61 °FSunny.7 mph45%30.05 "Hg10 mi
11:15 AM61 °FSunny.8 mph45%30.06 "Hg10 mi
10:55 AM59 °FSunny.9 mph48%30.04 "Hg10 mi
10:35 AM57 °FSunny.16 mph48%29.99 "Hg10 mi
10:15 AM55 °FSunny.13 mph51%30.00 "Hg10 mi
9:55 AM55 °FSunny.21 mph51%29.98 "Hg10 mi
9:35 AM54 °FSunny.18 mph54%29.99 "Hg10 mi
9:15 AM52 °FPassing clouds.13 mph54%30.00 "Hg10 mi
8:55 AM48 °FSunny.8 mph62%30.02 "Hg10 mi
8:35 AM46 °FSunny.9 mph62%30.02 "Hg10 mi
8:15 AM45 °FSunny.13 mph61%30.01 "Hg10 mi
7:55 AM43 °FClear.14 mph66%30.01 "Hg10 mi
7:35 AM43 °FClear.13 mph61%30.02 "Hg10 mi
7:15 AM41 °FClear.13 mph66%30.02 "Hg10 mi
6:55 AM41 °FClear.13 mph66%30.03 "Hg10 mi
6:35 AM41 °FClear.13 mph66%30.02 "Hg10 mi
6:15 AM43 °FClear.13 mph61%30.03 "Hg10 mi
5:55 AM43 °FClear.15 mph61%30.03 "Hg10 mi
5:35 AM43 °FClear.13 mph61%30.03 "Hg10 mi
5:15 AM43 °FClear.13 mph66%30.04 "Hg10 mi
4:55 AM41 °FClear.10 mph66%30.05 "Hg10 mi
4:35 AM41 °FClear.9 mph66%30.05 "Hg10 mi
4:15 AM41 °FClear.13 mph66%30.05 "Hg10 mi
3:55 AM41 °FClear.13 mph66%30.07 "Hg10 mi
3:35 AM41 °FClear.10 mph66%30.08 "Hg10 mi
3:15 AM39 °FClear.12 mph70%30.08 "Hg10 mi
2:55 AM39 °FClear.10 mph70%30.09 "Hg10 mi
2:35 AM41 °FClear.12 mph66%30.10 "Hg10 mi
2:15 AM41 °FClear.9 mph66%30.11 "Hg10 mi
1:55 AM41 °FClear.10 mph70%30.12 "Hg10 mi
1:35 AM43 °FClear.10 mph61%30.12 "Hg10 mi
1:15 AM43 °FClear.9 mph66%30.13 "Hg10 mi
12:55 AM43 °FClear.10 mph66%30.13 "Hg10 mi
12:35 AM43 °FClear.9 mph66%30.13 "Hg10 mi
12:15 AM43 °FClear.10 mph71%30.14 "Hg10 mi
11:55 PM
Sat, Mar 28
43 °FClear.10 mph71%30.14 "Hg10 mi
11:35 PM45 °FClear.10 mph66%30.14 "Hg10 mi
11:15 PM45 °FClear.12 mph66%30.14 "Hg10 mi
10:35 PM46 °FClear.12 mph66%30.14 "Hg10 mi
10:15 PM46 °FClear.13 mph66%30.14 "Hg10 mi
9:55 PM48 °FClear.13 mph62%30.14 "Hg10 mi
9:35 PM48 °FClear.14 mph66%30.13 "Hg10 mi
9:15 PM50 °FClear.12 mph62%30.13 "Hg10 mi
8:55 PM52 °FClear.12 mph58%30.12 "Hg10 mi
8:35 PM52 °FClear.10 mph58%30.12 "Hg10 mi
8:15 PM52 °FSunny.10 mph58%30.11 "Hg10 mi
7:55 PM54 °FSunny.8 mph54%30.11 "Hg10 mi
7:35 PM54 °FSunny.8 mph54%30.11 "Hg10 mi
7:15 PM55 °FSunny.12 mph51%30.10 "Hg10 mi
6:55 PM57 °FSunny.8 mph48%30.10 "Hg10 mi
6:35 PM57 °FSunny.10 mph51%30.09 "Hg10 mi
6:15 PM61 °FSunny.10 mph45%30.09 "Hg10 mi
Weather by CustomWeather, © 2015

See weather overviewHow to use our weather pages